URO660 EGHH-ZJHK

Flight info

Callsign URO660
Flight time N/A
Altitude 31000
Route GWC N16 OTSID DCT PAWDE P2 DVR UL9 KONAN UL607 MATUG DCT GUBAX DCT OSDUR DCT OSBIT L984 KOMIB DCT TONSU Z650 NOGRA DCT ETVIS DCT PEMEL DCT NELPA DCT TABEM DCT LIKSA DCT MAVOR DCT TURIS DCT PATAK DCT NIPUR DCT ADUKU/N0487F330 DCT BUKAN DCT RUSAG DCT LEBAT DCT DENAK DCT DIRAL DCT FTS DCT VAKIS DCT UDROS UM859 KARDE UN644 ROLIN N644 LAGAS M747 SUBUT T923 ERLEV DCT NIJAT DCT METKA B476 NEBIT/N0483F350 B476 DARVA/K0900F350 T898 OGOLI N193 SR DCT TISIB L141 KAMUD/K0895S1070 W186 SADAN Y1 DUMIN/K0883S1130 Y1 OMBON W245 OVRAL B330 DAGDI W234 NIXID B330 QNX V86 BSE R339 BHY W70 LIDLU LIDLU9XA
Aircraft A346/H-SDE2E3FGHIJ3J4J5M1RWXY/LB1D1

Departure

Time 2026-04-30 00:18
Airport Bournemouth Airport (EGHH)

Arrival

Time N/A
Airport Haikou Meilan International Airport (ZJHK)
Time Latitude Longitude Altitude Speed Heading
2026-04-29 23:40 50.77773 -1.84093 58 ft 0 kts 284°
2026-04-30 00:07 50.77776 -1.84109 50 ft 3 kts 289°
2026-04-30 00:08 50.77787 -1.84141 49 ft 5 kts 302°
2026-04-30 00:08 50.77812 -1.84204 50 ft 8 kts 301°
2026-04-30 00:08 50.77846 -1.84294 49 ft 11 kts 301°
2026-04-30 00:08 50.77887 -1.84404 47 ft 13 kts 300°
2026-04-30 00:09 50.77925 -1.84498 47 ft 6 kts 333°
2026-04-30 00:09 50.77960 -1.84471 51 ft 7 kts 54°
2026-04-30 00:09 50.77983 -1.84391 52 ft 9 kts 72°
2026-04-30 00:09 50.78000 -1.84293 47 ft 10 kts 76°
2026-04-30 00:10 50.78025 -1.84140 52 ft 18 kts 76°
2026-04-30 00:10 50.78061 -1.83921 50 ft 22 kts 75°
2026-04-30 00:10 50.78101 -1.83679 49 ft 23 kts 75°
2026-04-30 00:10 50.78141 -1.83437 52 ft 23 kts 75°
2026-04-30 00:11 50.78183 -1.83191 50 ft 23 kts 75°
2026-04-30 00:11 50.78224 -1.82943 53 ft 18 kts 75°
2026-04-30 00:11 50.78225 -1.82820 49 ft 9 kts 111°
2026-04-30 00:11 50.78218 -1.82743 54 ft 7 kts 63°
2026-04-30 00:12 50.78247 -1.82725 54 ft 2 kts 327°
2026-04-30 00:12 50.78249 -1.82734 54 ft 0 kts 280°
2026-04-30 00:12 50.78249 -1.82750 53 ft 3 kts 266°
2026-04-30 00:12 50.78248 -1.82771 54 ft 0 kts 259°
2026-04-30 00:13 50.78247 -1.82775 54 ft 0 kts 259°
2026-04-30 00:13 50.78247 -1.82776 54 ft 1 kts 259°
2026-04-30 00:13 50.78242 -1.82813 50 ft 7 kts 259°
2026-04-30 00:14 50.78227 -1.82928 53 ft 14 kts 257°
2026-04-30 00:14 50.78199 -1.83102 53 ft 18 kts 255°
2026-04-30 00:14 50.78162 -1.83324 50 ft 24 kts 255°
2026-04-30 00:14 50.78116 -1.83595 49 ft 28 kts 255°
2026-04-30 00:15 50.78062 -1.83922 50 ft 32 kts 255°
2026-04-30 00:15 50.78003 -1.84279 49 ft 35 kts 255°
2026-04-30 00:15 50.77939 -1.84668 49 ft 37 kts 255°
2026-04-30 00:15 50.77874 -1.85065 52 ft 36 kts 255°
2026-04-30 00:16 50.77812 -1.85435 52 ft 31 kts 255°
2026-04-30 00:16 50.77762 -1.85658 50 ft 15 kts 229°
2026-04-30 00:16 50.77723 -1.85728 53 ft 6 kts 269°
2026-04-30 00:16 50.77737 -1.85749 51 ft 4 kts 21°
2026-04-30 00:17 50.77761 -1.85707 50 ft 6 kts 61°
2026-04-30 00:17 50.77771 -1.85663 49 ft 0 kts 74°
2026-04-30 00:17 50.77805 -1.85474 52 ft 51 kts 75°
2026-04-30 00:17 50.77958 -1.84556 51 ft 119 kts 75°
2026-04-30 00:18 50.78214 -1.82987 66 ft 170 kts 75°
2026-04-30 00:18 50.78488 -1.81194 760 ft 167 kts 77°
2026-04-30 00:18 50.78767 -1.79421 1605 ft 165 kts 81°
2026-04-30 00:18 50.79043 -1.77669 2354 ft 165 kts 84°
2026-04-30 00:19 50.79326 -1.75831 2681 ft 178 kts 84°
2026-04-30 00:19 50.79624 -1.73882 3127 ft 185 kts 83°
2026-04-30 00:19 50.79853 -1.71878 3615 ft 186 kts 90°
2026-04-30 00:19 50.79974 -1.69765 3948 ft 201 kts 90°
2026-04-30 00:20 50.80093 -1.67403 4000 ft 228 kts 90°
2026-04-30 00:20 50.80234 -1.64846 4005 ft 236 kts 89°
2026-04-30 00:20 50.80391 -1.62213 4161 ft 245 kts 88°
2026-04-30 00:20 50.80556 -1.59529 4918 ft 243 kts 88°
2026-04-30 00:21 50.80722 -1.56856 5682 ft 244 kts 88°
2026-04-30 00:21 50.80907 -1.54188 6296 ft 250 kts 84°
2026-04-30 00:21 50.81249 -1.51453 6916 ft 255 kts 81°
2026-04-30 00:21 50.81642 -1.48686 7534 ft 259 kts 81°
2026-04-30 00:22 50.82039 -1.45876 8173 ft 262 kts 81°
2026-04-30 00:22 50.82433 -1.43046 8833 ft 264 kts 81°
2026-04-30 00:22 50.82826 -1.40169 9474 ft 268 kts 81°
2026-04-30 00:22 50.83218 -1.37270 10118 ft 270 kts 81°
2026-04-30 00:23 50.83614 -1.34336 10621 ft 276 kts 81°
2026-04-30 00:23 50.84018 -1.31308 10892 ft 291 kts 81°
2026-04-30 00:23 50.84445 -1.28089 11177 ft 306 kts 81°
2026-04-30 00:23 50.84892 -1.24708 11427 ft 320 kts 81°
2026-04-30 00:24 50.85358 -1.21172 11690 ft 335 kts 81°
2026-04-30 00:24 50.85845 -1.17477 11942 ft 349 kts 81°
2026-04-30 00:24 50.86350 -1.13633 12226 ft 363 kts 81°
2026-04-30 00:24 50.86870 -1.09671 12688 ft 369 kts 81°
2026-04-30 00:25 50.87395 -1.05665 13309 ft 372 kts 81°
2026-04-30 00:25 50.87923 -1.01625 13897 ft 376 kts 81°
2026-04-30 00:25 50.88454 -0.97550 14405 ft 380 kts 81°
2026-04-30 00:25 50.88990 -0.93424 14956 ft 383 kts 81°
2026-04-30 00:26 50.89525 -0.89277 15522 ft 385 kts 81°
2026-04-30 00:26 50.90063 -0.85105 16105 ft 386 kts 81°
2026-04-30 00:26 50.90603 -0.80911 16668 ft 388 kts 81°
2026-04-30 00:26 50.91136 -0.76749 17229 ft 390 kts 81°
2026-04-30 00:27 50.91677 -0.72513 17797 ft 392 kts 81°
2026-04-30 00:27 50.92219 -0.68258 18351 ft 394 kts 81°
2026-04-30 00:27 50.92761 -0.63985 18845 ft 396 kts 81°
2026-04-30 00:27 50.93306 -0.59676 19301 ft 399 kts 81°
2026-04-30 00:28 50.93853 -0.55340 19743 ft 402 kts 81°
2026-04-30 00:28 50.94402 -0.50974 20192 ft 404 kts 82°
2026-04-30 00:28 50.94955 -0.46558 20636 ft 407 kts 82°
2026-04-30 00:28 50.95507 -0.42135 21084 ft 410 kts 82°
2026-04-30 00:29 50.96053 -0.37741 21510 ft 412 kts 82°
2026-04-30 00:29 50.96618 -0.33191 21948 ft 415 kts 82°
2026-04-30 00:29 50.97168 -0.28738 22366 ft 418 kts 82°
2026-04-30 00:29 50.97729 -0.24188 22787 ft 420 kts 82°
2026-04-30 00:30 50.98291 -0.19612 23201 ft 423 kts 82°
2026-04-30 00:30 50.98854 -0.15009 23606 ft 426 kts 82°
2026-04-30 00:30 50.99426 -0.10318 23974 ft 428 kts 82°
2026-04-30 00:30 50.99985 -0.05713 24330 ft 430 kts 82°
2026-04-30 00:31 51.00551 -0.01036 24687 ft 432 kts 82°
2026-04-30 00:31 51.01117 0.03668 25070 ft 434 kts 82°
2026-04-30 00:31 51.01683 0.08382 25459 ft 435 kts 82°
2026-04-30 00:31 51.02251 0.13118 25825 ft 437 kts 82°
2026-04-30 00:32 51.02820 0.17881 26177 ft 438 kts 82°
2026-04-30 00:32 51.03388 0.22651 26518 ft 440 kts 82°
2026-04-30 00:32 51.03958 0.27460 26865 ft 442 kts 82°
2026-04-30 00:32 51.04529 0.32294 27196 ft 444 kts 82°
2026-04-30 00:33 51.05091 0.37073 27524 ft 446 kts 82°
2026-04-30 00:33 51.05660 0.41929 27845 ft 448 kts 82°
2026-04-30 00:33 51.06231 0.46823 28161 ft 450 kts 82°
2026-04-30 00:33 51.06799 0.51725 28465 ft 452 kts 82°
2026-04-30 00:34 51.07369 0.56661 28771 ft 453 kts 82°
2026-04-30 00:34 51.07939 0.61589 29190 ft 452 kts 82°
2026-04-30 00:34 51.08505 0.66495 29659 ft 450 kts 82°
2026-04-30 00:34 51.09067 0.71396 30120 ft 448 kts 82°
2026-04-30 00:35 51.09624 0.76269 30531 ft 447 kts 82°
2026-04-30 00:35 51.10177 0.81137 30876 ft 446 kts 82°
2026-04-30 00:35 51.10727 0.85993 31200 ft 445 kts 82°
2026-04-30 00:35 51.11276 0.90870 31505 ft 445 kts 82°
2026-04-30 00:36 51.11821 0.95722 31786 ft 445 kts 82°
2026-04-30 00:36 51.12359 1.00563 32118 ft 444 kts 81°
2026-04-30 00:36 51.12899 1.05408 32456 ft 443 kts 81°
2026-04-30 00:36 51.13433 1.10192 32787 ft 442 kts 81°
2026-04-30 00:37 51.13967 1.15014 33092 ft 442 kts 81°
2026-04-30 00:37 51.14499 1.19849 33395 ft 441 kts 81°
2026-04-30 00:37 51.15027 1.24677 33667 ft 442 kts 82°
2026-04-30 00:37 51.15459 1.29525 33903 ft 442 kts 85°
2026-04-30 00:38 51.15733 1.34419 34120 ft 443 kts 88°
2026-04-30 00:38 51.15847 1.39347 34328 ft 444 kts 90°
2026-04-30 00:38 51.15797 1.44282 34505 ft 444 kts 93°
2026-04-30 00:38 51.15598 1.49203 34686 ft 445 kts 95°
2026-04-30 00:39 51.15365 1.54126 34860 ft 446 kts 95°
2026-04-30 00:39 51.15127 1.59078 35038 ft 447 kts 95°
2026-04-30 00:39 51.14886 1.64032 35213 ft 448 kts 95°
2026-04-30 00:40 51.14398 1.73913 35281 ft 449 kts 95°
2026-04-30 00:40 51.13900 1.83853 35276 ft 450 kts 95°
2026-04-30 00:41 51.13389 1.93802 35281 ft 449 kts 95°
2026-04-30 00:41 51.12879 2.03734 35281 ft 450 kts 95°
2026-04-30 00:42 51.12387 2.13690 35275 ft 450 kts 95°
2026-04-30 00:42 51.11887 2.23628 35276 ft 450 kts 95°
2026-04-30 00:43 51.11378 2.33551 35279 ft 450 kts 95°
2026-04-30 00:43 51.10857 2.43494 35281 ft 449 kts 95°
2026-04-30 00:44 51.10329 2.53419 35285 ft 449 kts 95°
2026-04-30 00:44 51.09597 2.63312 35286 ft 449 kts 99°
2026-04-30 00:45 51.08249 2.73038 35286 ft 450 kts 105°
2026-04-30 00:45 51.06514 2.82539 35300 ft 450 kts 105°
2026-04-30 00:46 51.04751 2.92091 35302 ft 448 kts 105°
2026-04-30 00:46 51.02986 3.01618 35299 ft 448 kts 105°
2026-04-30 00:47 51.01227 3.11062 35297 ft 448 kts 105°
2026-04-30 00:47 50.99454 3.20534 35293 ft 448 kts 105°
2026-04-30 00:48 50.97661 3.30061 35296 ft 448 kts 105°
2026-04-30 00:48 50.95881 3.39461 35302 ft 447 kts 105°
2026-04-30 00:49 50.94084 3.48923 35299 ft 446 kts 105°
2026-04-30 00:49 50.92281 3.58357 35303 ft 446 kts 105°
2026-04-30 00:50 50.90468 3.67799 35305 ft 446 kts 105°
2026-04-30 00:50 50.88651 3.77227 35309 ft 447 kts 105°
2026-04-30 00:51 50.86839 3.86573 35309 ft 445 kts 105°
2026-04-30 00:51 50.85010 3.95984 35316 ft 445 kts 105°
2026-04-30 00:52 50.83180 4.05349 35320 ft 445 kts 105°
2026-04-30 00:52 50.81348 4.14677 35324 ft 445 kts 106°
2026-04-30 00:53 50.79496 4.24062 35329 ft 446 kts 106°
2026-04-30 00:53 50.77636 4.33439 35327 ft 447 kts 106°
2026-04-30 00:54 50.75766 4.42823 35327 ft 447 kts 106°
2026-04-30 00:54 50.74205 4.50626 35326 ft 447 kts 106°
2026-04-30 00:55 50.72015 4.61523 35322 ft 447 kts 106°
2026-04-30 00:55 50.69596 4.74018 35322 ft 446 kts 105°
2026-04-30 00:56 50.67777 4.83403 35312 ft 446 kts 105°
2026-04-30 00:56 50.65634 4.94295 35319 ft 446 kts 106°
2026-04-30 00:57 50.64047 5.02033 35319 ft 446 kts 106°
2026-04-30 00:57 50.62122 5.11352 35316 ft 446 kts 106°
2026-04-30 00:58 50.60190 5.20667 35319 ft 446 kts 106°
2026-04-30 00:58 50.58263 5.29951 35320 ft 445 kts 106°
2026-04-30 00:59 50.56328 5.39232 35315 ft 445 kts 106°
2026-04-30 00:59 50.54397 5.48442 35316 ft 445 kts 106°
2026-04-30 01:00 50.52451 5.57706 35327 ft 445 kts 105°
2026-04-30 01:00 50.50858 5.67104 35315 ft 443 kts 100°
2026-04-30 01:01 50.49642 5.76571 35321 ft 445 kts 99°
2026-04-30 01:01 50.48396 5.86185 35312 ft 445 kts 99°
2026-04-30 01:02 50.47154 5.95677 35322 ft 445 kts 99°
2026-04-30 01:02 50.45894 6.05233 35341 ft 445 kts 99°
2026-04-30 01:03 50.44633 6.14745 35344 ft 444 kts 99°
2026-04-30 01:03 50.43369 6.24240 35328 ft 444 kts 99°
2026-04-30 01:04 50.42107 6.33672 35340 ft 444 kts 99°
2026-04-30 01:04 50.41182 6.43244 35330 ft 442 kts 95°
2026-04-30 01:05 50.40444 6.52847 35347 ft 441 kts 94°
2026-04-30 01:05 50.39706 6.62423 35346 ft 441 kts 94°
2026-04-30 01:06 50.38968 6.71936 35351 ft 441 kts 95°
2026-04-30 01:06 50.38216 6.81507 35347 ft 441 kts 95°
2026-04-30 01:07 50.37457 6.91063 35362 ft 441 kts 95°
2026-04-30 01:07 50.36686 7.00620 35364 ft 443 kts 94°
2026-04-30 01:08 50.35912 7.10162 35359 ft 443 kts 94°
2026-04-30 01:08 50.35127 7.19759 35363 ft 443 kts 94°
2026-04-30 01:09 50.34331 7.29363 35366 ft 443 kts 95°
2026-04-30 01:09 50.33528 7.38955 35369 ft 443 kts 95°
2026-04-30 01:10 50.32715 7.48545 35378 ft 444 kts 95°
2026-04-30 01:10 50.31902 7.58084 35384 ft 444 kts 95°
2026-04-30 01:11 50.31076 7.67680 35388 ft 444 kts 95°
2026-04-30 01:11 50.30241 7.77260 35393 ft 444 kts 95°
2026-04-30 01:12 50.29394 7.86860 35413 ft 444 kts 94°
2026-04-30 01:12 50.28342 7.96433 35398 ft 445 kts 97°
2026-04-30 01:13 50.27146 8.05892 35397 ft 445 kts 97°
2026-04-30 01:13 50.25932 8.15413 35394 ft 446 kts 97°
2026-04-30 01:14 50.24710 8.24936 35383 ft 446 kts 98°
2026-04-30 01:14 50.23478 8.34439 35397 ft 444 kts 97°
2026-04-30 01:15 50.22248 8.43895 35408 ft 443 kts 97°
2026-04-30 01:15 50.21013 8.53337 35412 ft 443 kts 97°
2026-04-30 01:16 50.19768 8.62789 35411 ft 444 kts 97°
2026-04-30 01:16 50.18521 8.72182 35408 ft 444 kts 97°
2026-04-30 01:17 50.17259 8.81633 35404 ft 444 kts 98°
2026-04-30 01:17 50.15991 8.91062 35402 ft 444 kts 98°
2026-04-30 01:18 50.14711 9.00513 35397 ft 444 kts 98°
2026-04-30 01:18 50.13516 9.09962 35391 ft 442 kts 95°
2026-04-30 01:19 50.12623 9.19463 35410 ft 442 kts 94°
2026-04-30 01:19 50.11737 9.28919 35396 ft 444 kts 94°
2026-04-30 01:20 50.10838 9.38467 35396 ft 444 kts 94°
2026-04-30 01:20 50.09928 9.48026 35395 ft 444 kts 94°
2026-04-30 01:21 50.09019 9.57494 35398 ft 444 kts 94°
2026-04-30 01:21 50.08093 9.67022 35413 ft 444 kts 94°
2026-04-30 01:22 50.07294 9.76574 35411 ft 442 kts 90°
2026-04-30 01:22 50.07060 9.86121 35408 ft 439 kts 85°
2026-04-30 01:23 50.07143 9.95584 35421 ft 439 kts 85°
2026-04-30 01:23 50.07228 10.05102 35422 ft 439 kts 85°
2026-04-30 01:24 50.07292 10.14629 35448 ft 439 kts 85°
2026-04-30 01:24 50.07118 10.24180 35441 ft 442 kts 90°
2026-04-30 01:25 50.06348 10.33746 35442 ft 445 kts 94°
2026-04-30 01:25 50.05377 10.43281 35444 ft 445 kts 94°
2026-04-30 01:26 50.04402 10.52757 35440 ft 445 kts 94°
2026-04-30 01:26 50.03411 10.62287 35449 ft 446 kts 94°
2026-04-30 01:27 50.02412 10.71837 35447 ft 447 kts 94°
2026-04-30 01:27 50.01404 10.81391 35443 ft 447 kts 94°
2026-04-30 01:28 50.00388 10.90946 35440 ft 447 kts 94°
2026-04-30 01:28 49.99366 11.00472 35467 ft 447 kts 94°
2026-04-30 01:29 49.98334 11.10001 35449 ft 446 kts 94°
2026-04-30 01:29 49.97234 11.19535 35445 ft 448 kts 97°
2026-04-30 01:30 49.95603 11.28930 35437 ft 452 kts 102°
2026-04-30 01:30 49.93648 11.38177 35438 ft 453 kts 102°
2026-04-30 01:31 49.91859 11.47540 35460 ft 452 kts 100°
2026-04-30 01:31 49.90131 11.56946 35441 ft 452 kts 100°
2026-04-30 01:32 49.88393 11.66355 35430 ft 452 kts 100°
2026-04-30 01:32 49.86598 11.75728 35424 ft 453 kts 101°
2026-04-30 01:33 49.84773 11.85032 35423 ft 453 kts 101°
2026-04-30 01:33 49.82931 11.94392 35426 ft 453 kts 101°
2026-04-30 01:34 49.81093 12.03717 35417 ft 453 kts 101°
2026-04-30 01:34 49.79244 12.13055 35420 ft 453 kts 101°
2026-04-30 01:35 49.77385 12.22401 35431 ft 453 kts 101°
2026-04-30 01:35 49.75529 12.31704 35459 ft 456 kts 102°
2026-04-30 01:36 49.73640 12.41102 35440 ft 457 kts 102°
2026-04-30 01:36 49.71741 12.50507 35443 ft 457 kts 102°
2026-04-30 01:37 49.69837 12.59896 35451 ft 457 kts 102°
2026-04-30 01:37 49.67926 12.69279 35449 ft 457 kts 102°
2026-04-30 01:38 49.66012 12.78618 35466 ft 458 kts 101°
2026-04-30 01:38 49.64377 12.88083 35464 ft 455 kts 98°
2026-04-30 01:39 49.62886 12.97592 35459 ft 454 kts 98°
2026-04-30 01:39 49.61392 13.07075 35459 ft 455 kts 98°
2026-04-30 01:40 49.59887 13.16571 35464 ft 455 kts 98°
2026-04-30 01:40 49.58387 13.25975 35465 ft 455 kts 98°
2026-04-30 01:41 49.56857 13.35484 35464 ft 455 kts 98°
2026-04-30 01:41 49.55238 13.44949 35462 ft 456 kts 99°
2026-04-30 01:42 49.53604 13.54340 35464 ft 456 kts 99°
2026-04-30 01:42 49.51953 13.63814 35469 ft 458 kts 99°
2026-04-30 01:43 49.50576 13.71689 35461 ft 458 kts 99°
2026-04-30 01:43 49.48911 13.81175 35458 ft 458 kts 99°
2026-04-30 01:44 49.47240 13.90648 35457 ft 458 kts 99°
2026-04-30 01:44 49.45559 14.00130 35489 ft 459 kts 99°
2026-04-30 01:45 49.43876 14.09582 35463 ft 461 kts 100°
2026-04-30 01:45 49.42173 14.19082 35462 ft 461 kts 100°
2026-04-30 01:46 49.40460 14.28586 35459 ft 461 kts 100°
2026-04-30 01:46 49.38741 14.38079 35461 ft 461 kts 100°
2026-04-30 01:47 49.37010 14.47594 35471 ft 463 kts 100°
2026-04-30 01:47 49.35267 14.57118 35460 ft 463 kts 100°
2026-04-30 01:48 49.33515 14.66642 35459 ft 463 kts 100°
2026-04-30 01:48 49.31763 14.76121 35464 ft 463 kts 100°
2026-04-30 01:49 49.29998 14.85631 35484 ft 464 kts 101°
2026-04-30 01:49 49.28238 14.95189 35469 ft 465 kts 99°
2026-04-30 01:50 49.26806 15.04857 35466 ft 463 kts 97°
2026-04-30 01:50 49.25422 15.14512 35470 ft 464 kts 97°
2026-04-30 01:51 49.24097 15.24181 35471 ft 462 kts 95°
2026-04-30 01:51 49.23012 15.33914 35482 ft 464 kts 95°
2026-04-30 01:52 49.21925 15.43619 35476 ft 464 kts 95°
2026-04-30 01:52 49.20824 15.53368 35475 ft 464 kts 95°
2026-04-30 01:53 49.19715 15.63117 35478 ft 464 kts 95°
2026-04-30 01:53 49.18598 15.72874 35489 ft 466 kts 95°
2026-04-30 01:54 49.17467 15.82664 35479 ft 467 kts 95°
2026-04-30 01:54 49.16325 15.92452 35481 ft 467 kts 96°
2026-04-30 01:55 49.15003 16.02192 35439 ft 470 kts 100°
2026-04-30 01:55 49.13109 16.11728 35467 ft 472 kts 103°
2026-04-30 01:56 49.11084 16.21309 35443 ft 474 kts 103°
2026-04-30 01:56 49.09045 16.30899 35441 ft 474 kts 103°
2026-04-30 01:57 49.07005 16.40464 35461 ft 474 kts 103°
2026-04-30 01:57 49.04953 16.50046 35460 ft 474 kts 103°
2026-04-30 01:58 49.02895 16.59623 35468 ft 476 kts 104°
2026-04-30 01:58 49.00819 16.69221 35460 ft 476 kts 104°
2026-04-30 01:59 48.97706 16.83536 35450 ft 476 kts 104°
2026-04-30 02:00 48.95611 16.93116 35460 ft 476 kts 104°
2026-04-30 02:00 48.93504 17.02711 35431 ft 477 kts 104°
2026-04-30 02:01 48.91391 17.12286 35432 ft 477 kts 104°
2026-04-30 02:01 48.89276 17.21835 35424 ft 481 kts 104°
2026-04-30 02:02 48.87127 17.31489 35431 ft 482 kts 104°
2026-04-30 02:02 48.84959 17.41167 35432 ft 482 kts 105°
2026-04-30 02:03 48.82426 17.50650 35430 ft 486 kts 111°
2026-04-30 02:03 48.79196 17.59724 35424 ft 490 kts 118°
2026-04-30 02:04 48.75350 17.68312 35433 ft 492 kts 121°
2026-04-30 02:04 48.71409 17.76747 35429 ft 493 kts 121°
2026-04-30 02:05 48.67438 17.85233 35415 ft 493 kts 121°
2026-04-30 02:05 48.63453 17.93732 35412 ft 493 kts 121°
2026-04-30 02:06 48.59488 18.02166 35412 ft 493 kts 122°
2026-04-30 02:06 48.55499 18.10630 35431 ft 497 kts 122°
2026-04-30 02:07 48.51474 18.19140 35402 ft 498 kts 122°
2026-04-30 02:07 48.47431 18.27662 35407 ft 500 kts 122°
2026-04-30 02:08 48.43358 18.36215 35403 ft 501 kts 122°
2026-04-30 02:08 48.39285 18.44750 35422 ft 501 kts 123°
2026-04-30 02:09 48.35208 18.53280 35410 ft 501 kts 122°
2026-04-30 02:09 48.31208 18.61862 35411 ft 501 kts 122°
2026-04-30 02:10 48.27231 18.70407 35406 ft 501 kts 122°
2026-04-30 02:10 48.23224 18.78980 35418 ft 501 kts 122°
2026-04-30 02:11 48.19188 18.87568 35405 ft 501 kts 122°
2026-04-30 02:11 48.15185 18.96061 35392 ft 502 kts 123°
2026-04-30 02:12 48.11142 19.04608 35398 ft 503 kts 123°
2026-04-30 02:12 48.07140 19.13227 35401 ft 504 kts 121°
2026-04-30 02:13 48.03514 19.22228 35389 ft 504 kts 118°
2026-04-30 02:13 47.99940 19.31241 35388 ft 504 kts 118°
2026-04-30 02:14 47.96374 19.40198 35384 ft 504 kts 119°
2026-04-30 02:14 47.92775 19.49210 35389 ft 506 kts 119°
2026-04-30 02:15 47.89155 19.58234 35382 ft 506 kts 119°
2026-04-30 02:15 47.85526 19.67247 35375 ft 506 kts 119°
2026-04-30 02:16 47.81892 19.76246 35373 ft 506 kts 119°
2026-04-30 02:16 47.78251 19.85243 35350 ft 507 kts 120°
2026-04-30 02:17 47.74581 19.94271 35359 ft 510 kts 120°
2026-04-30 02:17 47.70914 20.03290 35358 ft 510 kts 119°
2026-04-30 02:18 47.67394 20.12384 35366 ft 510 kts 118°
2026-04-30 02:18 47.63864 20.21579 35345 ft 512 kts 119°
2026-04-30 02:19 47.60309 20.30757 35345 ft 513 kts 119°
2026-04-30 02:19 47.56757 20.39876 35338 ft 513 kts 119°
2026-04-30 02:20 47.53178 20.49030 35341 ft 513 kts 119°
2026-04-30 02:20 47.49588 20.58182 35335 ft 513 kts 119°
2026-04-30 02:21 47.45997 20.67303 35328 ft 513 kts 120°
2026-04-30 02:21 47.42395 20.76421 35322 ft 513 kts 120°
2026-04-30 02:22 47.38809 20.85470 35327 ft 513 kts 120°
2026-04-30 02:22 47.35195 20.94565 35305 ft 515 kts 120°
2026-04-30 02:23 47.31542 21.03723 35326 ft 517 kts 120°
2026-04-30 02:23 47.27878 21.12871 35310 ft 517 kts 120°
2026-04-30 02:24 47.24213 21.21997 35314 ft 518 kts 121°
2026-04-30 02:24 47.20530 21.31131 35309 ft 518 kts 121°
2026-04-30 02:25 47.16838 21.40259 35307 ft 518 kts 121°
2026-04-30 02:25 47.13168 21.49304 35317 ft 518 kts 121°
2026-04-30 02:26 47.09460 21.58422 35302 ft 520 kts 121°
2026-04-30 02:26 47.05739 21.67528 35302 ft 520 kts 121°
2026-04-30 02:27 47.02003 21.76642 35304 ft 520 kts 121°
2026-04-30 02:27 46.98257 21.85759 35308 ft 521 kts 121°
2026-04-30 02:28 46.94519 21.94822 35305 ft 522 kts 122°
2026-04-30 02:28 46.90722 22.03910 35283 ft 525 kts 123°
2026-04-30 02:29 46.87455 22.11414 35300 ft 525 kts 123°
2026-04-30 02:29 46.83517 22.20409 35281 ft 525 kts 123°
2026-04-30 02:30 46.79577 22.29408 35292 ft 525 kts 123°
2026-04-30 02:30 46.75632 22.38405 35276 ft 525 kts 123°
2026-04-30 02:31 46.71710 22.47328 35288 ft 525 kts 124°
2026-04-30 02:31 46.67772 22.56272 35289 ft 523 kts 124°
2026-04-30 02:32 46.63822 22.65193 35292 ft 523 kts 124°
2026-04-30 02:32 46.59872 22.74092 35295 ft 523 kts 124°
2026-04-30 02:33 46.55920 22.82975 35292 ft 523 kts 124°
2026-04-30 02:33 46.52035 22.91960 35299 ft 524 kts 122°
2026-04-30 02:34 46.48379 23.01133 35305 ft 525 kts 121°
2026-04-30 02:34 46.44748 23.10254 35301 ft 524 kts 122°
2026-04-30 02:35 46.41080 23.19433 35295 ft 526 kts 122°
2026-04-30 02:35 46.37394 23.28607 35293 ft 526 kts 122°
2026-04-30 02:36 46.33701 23.37769 35291 ft 526 kts 122°
2026-04-30 02:36 46.30001 23.46924 35289 ft 527 kts 122°
2026-04-30 02:37 46.26282 23.56094 35283 ft 527 kts 122°
2026-04-30 02:37 46.22557 23.65240 35273 ft 527 kts 123°
2026-04-30 02:38 46.18827 23.74372 35276 ft 527 kts 123°
2026-04-30 02:38 46.15110 23.83450 35280 ft 528 kts 123°
2026-04-30 02:39 46.11354 23.92584 35274 ft 529 kts 123°
2026-04-30 02:39 46.07595 24.01697 35252 ft 529 kts 123°
2026-04-30 02:40 46.03826 24.10808 35235 ft 529 kts 123°
2026-04-30 02:40 46.00049 24.19909 35244 ft 529 kts 123°
2026-04-30 02:41 45.96225 24.28884 35244 ft 528 kts 126°
2026-04-30 02:41 45.92199 24.37718 35273 ft 528 kts 126°
2026-04-30 02:42 45.88146 24.46562 35286 ft 529 kts 126°
2026-04-30 02:42 45.84092 24.55390 35279 ft 529 kts 126°
2026-04-30 02:43 45.80030 24.64216 35280 ft 529 kts 126°
2026-04-30 02:43 45.75963 24.73027 35279 ft 530 kts 127°
2026-04-30 02:44 45.71901 24.81801 35289 ft 531 kts 127°
2026-04-30 02:44 45.67813 24.90600 35283 ft 531 kts 127°
2026-04-30 02:45 45.63718 24.99389 35285 ft 530 kts 127°
2026-04-30 02:45 45.59615 25.08178 35271 ft 533 kts 127°
2026-04-30 02:46 45.55489 25.16974 35290 ft 533 kts 127°
2026-04-30 02:46 45.51350 25.25774 35290 ft 533 kts 127°
2026-04-30 02:47 45.47202 25.34570 35291 ft 533 kts 128°
2026-04-30 02:47 45.43049 25.43349 35292 ft 533 kts 128°
2026-04-30 02:48 45.38916 25.52055 35293 ft 533 kts 128°
2026-04-30 02:48 45.34943 25.60972 35280 ft 535 kts 124°
2026-04-30 02:49 45.31151 25.70116 35282 ft 536 kts 124°
2026-04-30 02:49 45.27363 25.79233 35287 ft 535 kts 124°
2026-04-30 02:50 45.23550 25.88364 35282 ft 535 kts 124°
2026-04-30 02:50 45.19741 25.97457 35278 ft 538 kts 124°
2026-04-30 02:51 45.15932 26.06506 35281 ft 538 kts 124°
2026-04-30 02:51 45.12049 26.15704 35273 ft 541 kts 125°
2026-04-30 02:52 45.08176 26.24856 35264 ft 542 kts 125°
2026-04-30 02:52 45.04318 26.33942 35273 ft 542 kts 125°
2026-04-30 02:53 45.00414 26.43100 35281 ft 542 kts 125°
2026-04-30 02:53 44.96485 26.52224 35271 ft 542 kts 126°
2026-04-30 02:54 44.92542 26.61320 35270 ft 543 kts 126°
2026-04-30 02:54 44.88592 26.70407 35270 ft 543 kts 126°
2026-04-30 02:55 44.84637 26.79484 35268 ft 543 kts 126°
2026-04-30 02:55 44.80695 26.88506 35263 ft 544 kts 126°
2026-04-30 02:56 44.76713 26.97588 35265 ft 544 kts 126°
2026-04-30 02:56 44.72731 27.06645 35257 ft 544 kts 126°
2026-04-30 02:57 44.68733 27.15708 35252 ft 544 kts 126°
2026-04-30 02:57 44.64733 27.24748 35221 ft 544 kts 126°
2026-04-30 02:58 44.60715 27.33798 35247 ft 545 kts 126°
2026-04-30 02:58 44.56714 27.42784 35244 ft 546 kts 126°
2026-04-30 02:59 44.52611 27.51761 35242 ft 544 kts 130°
2026-04-30 02:59 44.47935 27.60050 35244 ft 538 kts 138°
2026-04-30 03:00 44.42771 27.67621 35226 ft 536 kts 140°
2026-04-30 03:00 44.37772 27.75434 35232 ft 541 kts 133°
2026-04-30 03:01 44.33231 27.83864 35231 ft 543 kts 131°
2026-04-30 03:01 44.28725 27.92346 35219 ft 543 kts 131°
2026-04-30 03:02 44.24211 28.00782 35226 ft 542 kts 131°
2026-04-30 03:02 44.19721 28.09131 35215 ft 541 kts 131°
2026-04-30 03:03 44.15193 28.17519 35222 ft 541 kts 131°
2026-04-30 03:03 44.08392 28.30070 35223 ft 540 kts 131°
2026-04-30 03:04 44.03849 28.38429 35227 ft 540 kts 131°
2026-04-30 03:04 43.99318 28.46739 35209 ft 539 kts 132°
2026-04-30 03:05 43.94789 28.55024 35212 ft 537 kts 132°
2026-04-30 03:05 43.90295 28.63220 35217 ft 536 kts 132°
2026-04-30 03:06 43.85766 28.71455 35215 ft 536 kts 132°
2026-04-30 03:06 43.81165 28.79563 35184 ft 532 kts 134°
2026-04-30 03:07 43.76525 28.87530 35213 ft 531 kts 134°
2026-04-30 03:07 43.71882 28.95507 35218 ft 531 kts 134°
2026-04-30 03:08 43.67254 29.03457 35215 ft 530 kts 134°
2026-04-30 03:08 43.62626 29.11393 35213 ft 529 kts 134°
2026-04-30 03:09 43.58033 29.19252 35228 ft 529 kts 134°
2026-04-30 03:09 43.53394 29.27165 35216 ft 529 kts 134°
2026-04-30 03:10 43.48759 29.35051 35214 ft 529 kts 134°
2026-04-30 03:10 43.44105 29.42948 35213 ft 529 kts 134°
2026-04-30 03:11 43.39481 29.50765 35192 ft 529 kts 134°
2026-04-30 03:11 43.34826 29.58622 35201 ft 529 kts 134°
2026-04-30 03:12 43.30166 29.66470 35205 ft 529 kts 134°
2026-04-30 03:12 43.25498 29.74307 35203 ft 529 kts 134°
2026-04-30 03:13 43.20829 29.82124 35200 ft 529 kts 134°
2026-04-30 03:13 43.16155 29.89929 35200 ft 529 kts 134°
2026-04-30 03:14 43.11470 29.97730 35188 ft 529 kts 134°
2026-04-30 03:14 43.06790 30.05500 35195 ft 530 kts 134°
2026-04-30 03:15 43.02881 30.11979 35197 ft 530 kts 134°
2026-04-30 03:15 42.97423 30.20999 35179 ft 529 kts 134°
2026-04-30 03:16 42.93488 30.27488 35185 ft 528 kts 134°
2026-04-30 03:16 42.88823 30.35160 35189 ft 528 kts 134°
2026-04-30 03:17 42.84114 30.42885 35187 ft 528 kts 134°
2026-04-30 03:17 42.79462 30.50638 35180 ft 529 kts 130°
2026-04-30 03:18 42.75120 30.60737 35183 ft 535 kts 116°
2026-04-30 03:18 42.73060 30.68791 35180 ft 538 kts 105°
2026-04-30 03:19 42.71776 30.78773 35181 ft 539 kts 97°
2026-04-30 03:19 42.70821 30.88917 35181 ft 539 kts 97°
2026-04-30 03:20 42.69823 30.99072 35177 ft 539 kts 98°
2026-04-30 03:20 42.68785 31.09182 35178 ft 539 kts 98°
2026-04-30 03:21 42.67726 31.19287 35174 ft 539 kts 98°
2026-04-30 03:21 42.66665 31.29318 35173 ft 539 kts 98°
2026-04-30 03:22 42.65589 31.39413 35191 ft 539 kts 98°
2026-04-30 03:22 42.64501 31.49531 35171 ft 540 kts 98°
2026-04-30 03:23 42.63403 31.59655 35175 ft 540 kts 98°
2026-04-30 03:23 42.62304 31.69715 35173 ft 540 kts 98°
2026-04-30 03:24 42.61191 31.79817 35173 ft 540 kts 98°
2026-04-30 03:24 42.60069 31.89915 35166 ft 540 kts 98°
2026-04-30 03:25 42.58938 32.00005 35170 ft 539 kts 98°
2026-04-30 03:25 42.57811 32.10091 35171 ft 539 kts 98°
2026-04-30 03:26 42.56668 32.20108 35157 ft 539 kts 99°
2026-04-30 03:26 42.55507 32.30168 35165 ft 539 kts 99°
2026-04-30 03:27 42.54340 32.40229 35178 ft 539 kts 99°
2026-04-30 03:27 42.53161 32.50307 35169 ft 540 kts 99°
2026-04-30 03:28 42.51974 32.60383 35159 ft 540 kts 99°
2026-04-30 03:28 42.50779 32.70446 35163 ft 540 kts 99°
2026-04-30 03:29 42.49584 32.80443 35166 ft 539 kts 99°
2026-04-30 03:29 42.48372 32.90495 35166 ft 539 kts 99°
2026-04-30 03:30 42.47153 33.00538 35165 ft 539 kts 99°
2026-04-30 03:30 42.45922 33.10587 35168 ft 540 kts 99°
2026-04-30 03:31 42.44690 33.20568 35165 ft 539 kts 99°
2026-04-30 03:31 42.43437 33.30626 35161 ft 539 kts 99°
2026-04-30 03:32 42.42181 33.40641 35167 ft 539 kts 99°
2026-04-30 03:32 42.40915 33.50676 35175 ft 540 kts 99°
2026-04-30 03:33 42.39639 33.60716 35169 ft 540 kts 99°
2026-04-30 03:33 42.38361 33.70689 35169 ft 540 kts 99°
2026-04-30 03:34 42.37069 33.80725 35172 ft 540 kts 99°
2026-04-30 03:34 42.35767 33.90751 35172 ft 540 kts 100°
2026-04-30 03:35 42.34461 34.00765 35158 ft 540 kts 100°
2026-04-30 03:35 42.33155 34.10717 35169 ft 539 kts 100°
2026-04-30 03:36 42.31835 34.20713 35177 ft 539 kts 100°
2026-04-30 03:36 42.30506 34.30715 35175 ft 539 kts 100°
2026-04-30 03:37 42.29168 34.40692 35171 ft 538 kts 100°
2026-04-30 03:37 42.27819 34.50672 35183 ft 539 kts 100°
2026-04-30 03:38 42.26471 34.60581 35177 ft 539 kts 100°
2026-04-30 03:38 42.25105 34.70567 35162 ft 539 kts 100°
2026-04-30 03:39 42.23733 34.80516 35177 ft 538 kts 100°
2026-04-30 03:39 42.22348 34.90461 35181 ft 538 kts 100°
2026-04-30 03:40 42.20965 35.00323 35180 ft 538 kts 101°
2026-04-30 03:40 42.19563 35.10266 35179 ft 537 kts 101°
2026-04-30 03:41 42.18156 35.20187 35179 ft 537 kts 101°
2026-04-30 03:41 42.16741 35.30100 35179 ft 537 kts 101°
2026-04-30 03:42 42.15317 35.40000 35180 ft 537 kts 101°
2026-04-30 03:42 42.13888 35.49891 35191 ft 536 kts 101°
2026-04-30 03:43 42.12461 35.59711 35187 ft 537 kts 101°
2026-04-30 03:43 42.11013 35.69612 35182 ft 537 kts 101°
2026-04-30 03:44 42.09559 35.79497 35176 ft 536 kts 101°
2026-04-30 03:44 42.08099 35.89361 35176 ft 536 kts 101°
2026-04-30 03:45 42.06638 35.99168 35182 ft 536 kts 101°
2026-04-30 03:45 42.05163 36.09011 35179 ft 536 kts 101°
2026-04-30 03:46 42.03680 36.18847 35175 ft 535 kts 101°
2026-04-30 03:46 42.02188 36.28682 35177 ft 535 kts 102°
2026-04-30 03:47 42.00687 36.38515 35175 ft 535 kts 102°
2026-04-30 03:47 41.99181 36.48331 35202 ft 535 kts 102°
2026-04-30 03:48 41.97673 36.58093 35184 ft 536 kts 102°
2026-04-30 03:48 41.96145 36.67926 35184 ft 536 kts 102°
2026-04-30 03:49 41.94611 36.77743 35182 ft 536 kts 102°
2026-04-30 03:49 41.93069 36.87560 35178 ft 536 kts 102°
2026-04-30 03:50 41.91519 36.97376 35177 ft 536 kts 101°
2026-04-30 03:50 41.90425 37.07274 35184 ft 535 kts 94°
2026-04-30 03:51 41.90123 37.17205 35164 ft 534 kts 90°
2026-04-30 03:51 41.90010 37.27195 35175 ft 534 kts 90°
2026-04-30 03:52 41.89877 37.37188 35189 ft 535 kts 90°
2026-04-30 03:52 41.89718 37.47184 35178 ft 535 kts 90°
2026-04-30 03:53 41.89545 37.57179 35178 ft 535 kts 90°
2026-04-30 03:53 41.89362 37.67195 35182 ft 535 kts 90°
2026-04-30 03:54 41.89171 37.77130 35183 ft 535 kts 90°
2026-04-30 03:54 41.88971 37.87129 35180 ft 535 kts 90°
2026-04-30 03:55 41.88763 37.97135 35193 ft 536 kts 90°
2026-04-30 03:55 41.88545 38.07167 35183 ft 536 kts 91°
2026-04-30 03:56 41.88318 38.17189 35186 ft 536 kts 91°
2026-04-30 03:56 41.88084 38.27136 35187 ft 536 kts 91°
2026-04-30 03:57 41.87840 38.37148 35188 ft 535 kts 91°
2026-04-30 03:57 41.87588 38.47153 35170 ft 535 kts 91°
2026-04-30 03:58 41.87327 38.57157 35178 ft 534 kts 91°
2026-04-30 03:58 41.87058 38.67135 35192 ft 534 kts 91°
2026-04-30 03:59 41.86780 38.77120 35193 ft 534 kts 91°
2026-04-30 03:59 41.86496 38.87037 35190 ft 534 kts 91°
2026-04-30 04:00 41.86201 38.97011 35187 ft 534 kts 91°
2026-04-30 04:00 41.85898 39.06975 35199 ft 534 kts 91°
2026-04-30 04:01 41.85585 39.16992 35193 ft 535 kts 91°
2026-04-30 04:01 41.85264 39.26975 35198 ft 535 kts 91°
2026-04-30 04:02 41.84936 39.36956 35189 ft 534 kts 92°
2026-04-30 04:02 41.84656 39.45249 35198 ft 534 kts 92°
2026-04-30 04:03 41.84309 39.55235 35197 ft 534 kts 92°
2026-04-30 04:03 41.83956 39.65156 35209 ft 534 kts 92°
2026-04-30 04:04 41.83594 39.75126 35188 ft 534 kts 92°
2026-04-30 04:04 41.83224 39.85098 35197 ft 534 kts 92°
2026-04-30 04:05 41.82846 39.95054 35191 ft 534 kts 92°
2026-04-30 04:05 41.82460 40.05002 35189 ft 534 kts 92°
2026-04-30 04:06 41.82063 40.14977 35181 ft 534 kts 92°
2026-04-30 04:06 41.81658 40.24877 35207 ft 534 kts 92°
2026-04-30 04:07 41.81240 40.34846 35199 ft 534 kts 92°
2026-04-30 04:08 41.80604 40.49795 35192 ft 534 kts 92°
2026-04-30 04:08 41.80168 40.59771 35198 ft 534 kts 92°
2026-04-30 04:09 41.79715 40.69746 35193 ft 534 kts 93°
2026-04-30 04:09 41.79230 40.79651 35198 ft 534 kts 93°
2026-04-30 04:10 41.78731 40.89626 35202 ft 535 kts 93°
2026-04-30 04:10 41.78230 40.99589 35191 ft 534 kts 93°
2026-04-30 04:11 41.77724 41.09473 35194 ft 534 kts 93°
2026-04-30 04:11 41.77205 41.19430 35194 ft 534 kts 93°
2026-04-30 04:12 41.76678 41.29388 35193 ft 534 kts 93°
2026-04-30 04:12 41.76143 41.39338 35180 ft 534 kts 94°
2026-04-30 04:13 41.75602 41.49259 35199 ft 533 kts 94°
2026-04-30 04:13 41.75054 41.59101 35196 ft 533 kts 94°
2026-04-30 04:14 41.74496 41.69007 35194 ft 533 kts 94°
2026-04-30 04:14 41.73928 41.78926 35166 ft 532 kts 94°
2026-04-30 04:15 41.73357 41.88803 35181 ft 530 kts 94°
2026-04-30 04:15 41.72773 41.98683 35237 ft 533 kts 94°
2026-04-30 04:15 41.72480 42.03625 35571 ft 531 kts 95°
2026-04-30 04:16 41.72184 42.08556 36005 ft 527 kts 95°
2026-04-30 04:16 41.71887 42.13441 36359 ft 524 kts 95°
2026-04-30 04:16 41.71593 42.18241 36668 ft 524 kts 95°
2026-04-30 04:16 41.71294 42.23108 36912 ft 523 kts 95°
2026-04-30 04:17 41.70992 42.27968 37112 ft 523 kts 95°
2026-04-30 04:17 41.70381 42.37692 37154 ft 523 kts 95°
2026-04-30 04:18 41.69765 42.47405 37147 ft 523 kts 95°
2026-04-30 04:18 41.69140 42.57124 37149 ft 523 kts 95°
2026-04-30 04:19 41.68510 42.66847 37147 ft 524 kts 96°
2026-04-30 04:19 41.67868 42.76576 37151 ft 524 kts 96°
2026-04-30 04:20 41.67216 42.86299 37164 ft 523 kts 96°
2026-04-30 04:20 41.66559 42.95954 37161 ft 524 kts 96°
2026-04-30 04:21 41.65890 43.05672 37154 ft 523 kts 96°
2026-04-30 04:21 41.65214 43.15373 37163 ft 522 kts 96°
2026-04-30 04:22 41.64533 43.25060 37169 ft 522 kts 96°
2026-04-30 04:22 41.63843 43.34727 37159 ft 521 kts 96°
2026-04-30 04:23 41.63145 43.44392 37140 ft 522 kts 97°
2026-04-30 04:23 41.62437 43.54074 37142 ft 522 kts 97°
2026-04-30 04:24 41.61726 43.63742 37137 ft 522 kts 97°
2026-04-30 04:24 41.61011 43.73360 37140 ft 522 kts 97°
2026-04-30 04:25 41.60287 43.83028 37129 ft 522 kts 97°
2026-04-30 04:25 41.59555 43.92683 37123 ft 520 kts 97°
2026-04-30 04:26 41.58814 44.02297 37136 ft 520 kts 97°
2026-04-30 04:26 41.58065 44.11924 37138 ft 520 kts 97°
2026-04-30 04:27 41.57089 44.21433 37138 ft 519 kts 103°
2026-04-30 04:27 41.55326 44.30772 37144 ft 513 kts 110°
2026-04-30 04:28 41.53085 44.39812 37152 ft 512 kts 111°
2026-04-30 04:28 41.50834 44.48789 37154 ft 512 kts 111°
2026-04-30 04:29 41.48576 44.57829 37157 ft 512 kts 111°
2026-04-30 04:29 41.46322 44.66845 37148 ft 512 kts 111°
2026-04-30 04:30 41.44061 44.75864 37150 ft 512 kts 111°
2026-04-30 04:30 41.41792 44.84878 37150 ft 512 kts 111°
2026-04-30 04:31 41.39519 44.93879 37138 ft 510 kts 111°
2026-04-30 04:31 41.37261 45.02781 37144 ft 510 kts 111°
2026-04-30 04:32 41.34977 45.11745 37148 ft 510 kts 111°
2026-04-30 04:32 41.32683 45.20702 37132 ft 510 kts 112°
2026-04-30 04:33 41.30389 45.29634 37142 ft 509 kts 112°
2026-04-30 04:33 41.28088 45.38553 37162 ft 509 kts 112°
2026-04-30 04:34 41.25798 45.47405 37159 ft 509 kts 112°
2026-04-30 04:34 41.23479 45.56333 37152 ft 510 kts 112°
2026-04-30 04:35 41.21152 45.65254 37152 ft 510 kts 112°
2026-04-30 04:35 41.18811 45.74166 37150 ft 510 kts 112°
2026-04-30 04:36 41.16462 45.83062 37137 ft 510 kts 112°
2026-04-30 04:36 41.14114 45.91931 37152 ft 512 kts 112°
2026-04-30 04:37 41.11742 46.00864 37159 ft 512 kts 112°
2026-04-30 04:37 41.09363 46.09793 37158 ft 512 kts 112°
2026-04-30 04:38 41.06989 46.18672 37158 ft 513 kts 112°
2026-04-30 04:38 41.04577 46.27656 37162 ft 513 kts 112°
2026-04-30 04:39 41.02203 46.36523 37172 ft 513 kts 112°
2026-04-30 04:39 40.99813 46.45467 37160 ft 513 kts 112°
2026-04-30 04:40 40.97417 46.54399 37178 ft 513 kts 112°
2026-04-30 04:40 40.95015 46.63325 37179 ft 513 kts 112°
2026-04-30 04:41 40.92623 46.72175 37173 ft 513 kts 112°
2026-04-30 04:41 40.90556 46.81240 37175 ft 515 kts 106°
2026-04-30 04:42 40.89255 46.90601 37184 ft 518 kts 99°
2026-04-30 04:42 40.88546 47.00086 37187 ft 518 kts 97°
2026-04-30 04:43 40.87882 47.09594 37186 ft 518 kts 97°
2026-04-30 04:43 40.87191 47.19078 37179 ft 517 kts 97°
2026-04-30 04:44 40.86483 47.28550 37179 ft 517 kts 98°
2026-04-30 04:44 40.85766 47.38016 37175 ft 517 kts 98°
2026-04-30 04:45 40.85045 47.47429 37172 ft 517 kts 98°
2026-04-30 04:45 40.84372 47.56901 37160 ft 517 kts 96°
2026-04-30 04:46 40.83808 47.66366 37166 ft 516 kts 96°
2026-04-30 04:46 40.83237 47.75795 37169 ft 515 kts 97°
2026-04-30 04:47 40.82647 47.85254 37168 ft 515 kts 97°
2026-04-30 04:47 40.82046 47.94703 37163 ft 515 kts 97°
2026-04-30 04:48 40.81440 48.04083 37162 ft 515 kts 97°
2026-04-30 04:48 40.80824 48.13530 37161 ft 515 kts 97°
2026-04-30 04:49 40.80199 48.22986 37164 ft 515 kts 97°
2026-04-30 04:49 40.79565 48.32433 37165 ft 515 kts 97°
2026-04-30 04:50 40.78926 48.41870 37148 ft 515 kts 97°
2026-04-30 04:50 40.78277 48.51322 37160 ft 516 kts 97°
2026-04-30 04:51 40.77733 48.59169 37158 ft 516 kts 97°
2026-04-30 04:51 40.76962 48.70146 37160 ft 515 kts 98°
2026-04-30 04:52 40.76400 48.78057 37167 ft 515 kts 98°
2026-04-30 04:52 40.75728 48.87425 37157 ft 515 kts 98°
2026-04-30 04:53 40.75045 48.96836 37164 ft 514 kts 98°
2026-04-30 04:53 40.74354 49.06255 37168 ft 514 kts 98°
2026-04-30 04:54 40.73657 49.15650 37168 ft 514 kts 98°
2026-04-30 04:54 40.72991 49.24985 37170 ft 514 kts 96°
2026-04-30 04:55 40.72601 49.34450 37172 ft 515 kts 95°
2026-04-30 04:55 40.72239 49.43905 37173 ft 515 kts 95°
2026-04-30 04:56 40.71866 49.53368 37171 ft 516 kts 95°
2026-04-30 04:56 40.71485 49.62767 37175 ft 516 kts 96°
2026-04-30 04:57 40.71089 49.72284 37169 ft 516 kts 96°
2026-04-30 04:57 40.70689 49.81694 37164 ft 516 kts 96°
2026-04-30 04:58 40.70280 49.91148 37168 ft 516 kts 96°
2026-04-30 04:58 40.69863 50.00633 37164 ft 516 kts 96°
2026-04-30 04:59 40.69438 50.10101 37160 ft 516 kts 96°
2026-04-30 04:59 40.69007 50.19555 37155 ft 516 kts 96°
2026-04-30 05:00 40.68568 50.29023 37151 ft 516 kts 96°
2026-04-30 05:00 40.68123 50.38420 37154 ft 516 kts 96°
2026-04-30 05:01 40.68061 50.47936 37163 ft 518 kts 89°
2026-04-30 05:01 40.68492 50.57442 37162 ft 519 kts 88°
2026-04-30 05:02 40.68952 50.66905 37161 ft 519 kts 88°
2026-04-30 05:02 40.69395 50.76408 37160 ft 519 kts 89°
2026-04-30 05:03 40.69823 50.85924 37157 ft 519 kts 89°
2026-04-30 05:03 40.70242 50.95431 37160 ft 518 kts 89°
2026-04-30 05:04 40.70652 51.04965 37164 ft 518 kts 89°
2026-04-30 05:04 40.71052 51.14413 37171 ft 518 kts 89°
2026-04-30 05:05 40.71446 51.23904 37164 ft 518 kts 89°
2026-04-30 05:05 40.71834 51.33419 37149 ft 518 kts 89°
2026-04-30 05:06 40.72487 51.47614 37155 ft 519 kts 86°
2026-04-30 05:06 40.73620 51.57046 37151 ft 521 kts 79°
2026-04-30 05:07 40.75165 51.66390 37155 ft 521 kts 79°
2026-04-30 05:07 40.76724 51.75728 37151 ft 521 kts 79°
2026-04-30 05:08 40.78263 51.85096 37145 ft 521 kts 79°
2026-04-30 05:08 40.79788 51.94475 37137 ft 521 kts 79°
2026-04-30 05:09 40.81303 52.03842 37138 ft 521 kts 79°
2026-04-30 05:09 40.82809 52.13219 37125 ft 521 kts 79°
2026-04-30 05:10 40.84310 52.22609 37127 ft 522 kts 79°
2026-04-30 05:10 40.85796 52.31952 37127 ft 522 kts 80°
2026-04-30 05:11 40.87283 52.41345 37124 ft 521 kts 80°
2026-04-30 05:11 40.88765 52.50778 37121 ft 521 kts 80°
2026-04-30 05:12 40.90103 52.60201 37117 ft 520 kts 84°
2026-04-30 05:12 40.90746 52.69680 37118 ft 519 kts 89°
2026-04-30 05:13 40.91137 52.79212 37114 ft 519 kts 89°
2026-04-30 05:13 40.91526 52.88776 37098 ft 519 kts 89°
2026-04-30 05:14 40.91921 52.98269 37111 ft 519 kts 89°
2026-04-30 05:14 40.92312 53.07819 37107 ft 519 kts 90°
2026-04-30 05:15 40.92689 53.17359 37106 ft 518 kts 90°
2026-04-30 05:15 40.93047 53.26912 37106 ft 518 kts 90°
2026-04-30 05:16 40.93399 53.36461 37115 ft 518 kts 90°
2026-04-30 05:16 40.93745 53.46010 37105 ft 518 kts 90°
2026-04-30 05:17 40.94082 53.55494 37099 ft 518 kts 90°
2026-04-30 05:17 40.94412 53.65036 37100 ft 518 kts 90°
2026-04-30 05:18 40.94732 53.74525 37100 ft 518 kts 90°
2026-04-30 05:18 40.95047 53.84064 37083 ft 518 kts 90°
2026-04-30 05:19 40.95356 53.93610 37098 ft 517 kts 91°
2026-04-30 05:19 40.95654 54.03126 37092 ft 517 kts 91°
2026-04-30 05:20 40.95945 54.12676 37079 ft 517 kts 91°
2026-04-30 05:20 40.96227 54.22154 37093 ft 518 kts 91°
2026-04-30 05:21 40.96502 54.31709 37095 ft 518 kts 91°
2026-04-30 05:21 40.96770 54.41253 37091 ft 518 kts 91°
2026-04-30 05:22 40.97030 54.50792 37094 ft 518 kts 91°
2026-04-30 05:22 40.97283 54.60353 37094 ft 518 kts 91°
2026-04-30 05:23 40.97526 54.69816 37097 ft 516 kts 91°
2026-04-30 05:23 40.97764 54.79342 37091 ft 517 kts 91°
2026-04-30 05:24 40.97991 54.88857 37092 ft 517 kts 91°
2026-04-30 05:24 40.98200 54.98383 37092 ft 517 kts 92°
2026-04-30 05:25 40.98400 55.07921 37089 ft 516 kts 92°
2026-04-30 05:25 40.98594 55.17432 37089 ft 516 kts 92°
2026-04-30 05:26 40.98781 55.26951 37082 ft 516 kts 92°
2026-04-30 05:26 40.98960 55.36400 37063 ft 516 kts 92°
2026-04-30 05:27 40.99133 55.45930 37075 ft 517 kts 92°
2026-04-30 05:27 40.99297 55.55473 37079 ft 517 kts 92°
2026-04-30 05:28 40.99454 55.65021 37083 ft 517 kts 92°
2026-04-30 05:28 40.99602 55.74506 37075 ft 517 kts 92°
2026-04-30 05:29 40.99751 55.84051 37077 ft 517 kts 92°
2026-04-30 05:29 40.99903 55.93592 37074 ft 517 kts 92°
2026-04-30 05:30 41.00048 56.03108 37072 ft 518 kts 92°
2026-04-30 05:30 41.00186 56.12674 37080 ft 518 kts 92°
2026-04-30 05:31 41.00316 56.22237 37062 ft 518 kts 93°
2026-04-30 05:31 41.00438 56.31741 37068 ft 519 kts 93°
2026-04-30 05:32 41.00553 56.41373 37068 ft 519 kts 93°
2026-04-30 05:32 41.00819 56.50880 37071 ft 521 kts 89°
2026-04-30 05:33 41.01768 56.60440 37068 ft 523 kts 84°
2026-04-30 05:33 41.02927 56.69976 37066 ft 523 kts 84°
2026-04-30 05:34 41.04076 56.79518 37072 ft 523 kts 84°
2026-04-30 05:34 41.05199 56.89004 37072 ft 523 kts 84°
2026-04-30 05:35 41.06323 56.98607 37064 ft 523 kts 84°
2026-04-30 05:35 41.07422 57.08078 37065 ft 523 kts 84°
2026-04-30 05:36 41.08523 57.17637 37066 ft 523 kts 85°
2026-04-30 05:36 41.09615 57.27193 37053 ft 523 kts 85°
2026-04-30 05:37 41.10691 57.36673 37058 ft 522 kts 85°
2026-04-30 05:37 41.11764 57.46205 37057 ft 521 kts 85°
2026-04-30 05:38 41.12830 57.55740 37055 ft 521 kts 85°
2026-04-30 05:38 41.13887 57.65280 37038 ft 522 kts 85°
2026-04-30 05:39 41.14939 57.74837 37044 ft 523 kts 85°
2026-04-30 05:39 41.15809 57.82792 37040 ft 523 kts 85°
2026-04-30 05:40 41.16848 57.92363 37039 ft 523 kts 85°
2026-04-30 05:40 41.17879 58.01932 37039 ft 523 kts 85°
2026-04-30 05:41 41.18894 58.11448 37036 ft 523 kts 85°
2026-04-30 05:41 41.19905 58.21026 37036 ft 523 kts 85°
2026-04-30 05:42 41.20912 58.30633 37014 ft 523 kts 85°
2026-04-30 05:42 41.21909 58.40206 37025 ft 522 kts 85°
2026-04-30 05:43 41.22897 58.49764 37024 ft 522 kts 85°
2026-04-30 05:43 41.23870 58.59265 37000 ft 522 kts 85°
2026-04-30 05:44 41.24844 58.68862 37014 ft 523 kts 85°
2026-04-30 05:44 41.25813 58.78468 37009 ft 523 kts 85°
2026-04-30 05:45 41.26772 58.88057 37008 ft 523 kts 85°
2026-04-30 05:45 41.27722 58.97647 37009 ft 522 kts 86°
2026-04-30 05:46 41.28663 59.07235 36999 ft 521 kts 86°
2026-04-30 05:46 41.29589 59.16745 36997 ft 521 kts 86°
2026-04-30 05:47 41.30514 59.26320 37000 ft 521 kts 86°
2026-04-30 05:47 41.31430 59.35889 36980 ft 521 kts 86°
2026-04-30 05:48 41.32337 59.45447 36986 ft 519 kts 86°
2026-04-30 05:48 41.33236 59.55011 36973 ft 519 kts 86°
2026-04-30 05:49 41.33990 59.64584 36981 ft 518 kts 90°
2026-04-30 05:49 41.34006 59.74103 36969 ft 515 kts 97°
2026-04-30 05:50 41.33553 59.83647 36982 ft 515 kts 97°
2026-04-30 05:50 41.33082 59.93176 36972 ft 515 kts 97°
2026-04-30 05:51 41.32619 60.02717 36976 ft 515 kts 97°
2026-04-30 05:51 41.32159 60.12249 36962 ft 515 kts 97°
2026-04-30 05:52 41.31697 60.21802 36952 ft 517 kts 97°
2026-04-30 05:52 41.31230 60.31364 36960 ft 517 kts 97°
2026-04-30 05:53 41.30822 60.40869 36951 ft 519 kts 95°
2026-04-30 05:53 41.31032 60.50507 36955 ft 521 kts 89°
2026-04-30 05:54 41.31554 60.60142 36951 ft 521 kts 89°
2026-04-30 05:54 41.32081 60.69787 36948 ft 521 kts 89°
2026-04-30 05:55 41.32586 60.79430 36948 ft 521 kts 89°
2026-04-30 05:55 41.33078 60.89081 36946 ft 521 kts 89°
2026-04-30 05:56 41.33555 60.98644 36946 ft 520 kts 89°
2026-04-30 05:56 41.34031 61.08294 36944 ft 520 kts 89°
2026-04-30 05:57 41.34498 61.17931 36944 ft 520 kts 89°
2026-04-30 05:57 41.34956 61.27563 36926 ft 520 kts 89°
2026-04-30 05:58 41.35402 61.37118 36938 ft 519 kts 89°
2026-04-30 05:58 41.35842 61.46720 36935 ft 519 kts 89°
2026-04-30 05:59 41.36274 61.56328 36934 ft 519 kts 89°
2026-04-30 05:59 41.36700 61.65945 36938 ft 519 kts 89°
2026-04-30 06:00 41.37119 61.75558 36927 ft 520 kts 89°
2026-04-30 06:00 41.37531 61.85191 36930 ft 520 kts 89°
2026-04-30 06:01 41.37935 61.94829 36919 ft 520 kts 89°
2026-04-30 06:01 41.38332 62.04475 36924 ft 520 kts 89°
2026-04-30 06:02 41.38720 62.14102 36925 ft 520 kts 89°
2026-04-30 06:02 41.39098 62.23674 36923 ft 519 kts 89°
2026-04-30 06:03 41.39470 62.33288 36918 ft 517 kts 89°
2026-04-30 06:03 41.39834 62.42880 36917 ft 517 kts 89°
2026-04-30 06:04 41.40189 62.52466 36914 ft 517 kts 89°
2026-04-30 06:05 41.40746 62.66810 36908 ft 518 kts 89°
2026-04-30 06:05 41.41115 62.76416 36914 ft 518 kts 89°
2026-04-30 06:06 41.41475 62.86022 36909 ft 518 kts 89°
2026-04-30 06:06 41.41826 62.95624 36905 ft 518 kts 89°
2026-04-30 06:07 41.42166 63.05154 36901 ft 518 kts 89°
2026-04-30 06:07 41.42501 63.14757 36887 ft 518 kts 89°
2026-04-30 06:08 41.42826 63.24367 36898 ft 519 kts 89°
2026-04-30 06:08 41.43147 63.33993 36898 ft 519 kts 89°
2026-04-30 06:09 41.43460 63.43621 36899 ft 519 kts 90°
2026-04-30 06:09 41.43764 63.53255 36889 ft 520 kts 89°
2026-04-30 06:10 41.44060 63.62847 36895 ft 520 kts 89°
2026-04-30 06:10 41.44341 63.72516 36898 ft 520 kts 90°
2026-04-30 06:11 41.44600 63.82164 36907 ft 519 kts 90°
2026-04-30 06:11 41.44854 63.91792 36901 ft 519 kts 90°
2026-04-30 06:12 41.45103 64.01444 36904 ft 519 kts 90°
2026-04-30 06:12 41.45341 64.11028 36902 ft 518 kts 90°
2026-04-30 06:13 41.45573 64.20638 36913 ft 518 kts 90°
2026-04-30 06:13 41.45798 64.30266 36916 ft 518 kts 90°
2026-04-30 06:14 41.46013 64.39890 36906 ft 518 kts 90°
2026-04-30 06:14 41.46220 64.49471 36912 ft 519 kts 90°
2026-04-30 06:15 41.46422 64.59101 36917 ft 519 kts 90°
2026-04-30 06:15 41.46615 64.68728 36913 ft 519 kts 90°
2026-04-30 06:16 41.46799 64.78365 36909 ft 519 kts 90°
2026-04-30 06:16 41.46975 64.87995 36910 ft 519 kts 90°
2026-04-30 06:17 41.47144 64.97637 36915 ft 519 kts 90°
2026-04-30 06:17 41.47301 65.07190 36910 ft 518 kts 90°
2026-04-30 06:18 41.47455 65.16819 36909 ft 518 kts 90°
2026-04-30 06:18 41.47600 65.26450 36895 ft 518 kts 90°
2026-04-30 06:19 41.47733 65.36037 36908 ft 519 kts 90°
2026-04-30 06:19 41.47863 65.45675 36910 ft 518 kts 90°
2026-04-30 06:20 41.47986 65.55330 36905 ft 519 kts 90°
2026-04-30 06:20 41.48098 65.64970 36906 ft 518 kts 90°
2026-04-30 06:21 41.48203 65.74538 36907 ft 518 kts 90°
2026-04-30 06:21 41.48280 65.84161 36908 ft 518 kts 91°
2026-04-30 06:22 41.48298 65.93801 36903 ft 518 kts 91°
2026-04-30 06:22 41.48309 66.03447 36905 ft 519 kts 91°
2026-04-30 06:23 41.48319 66.13096 36907 ft 519 kts 91°
2026-04-30 06:23 41.48324 66.22673 36899 ft 519 kts 91°
2026-04-30 06:24 41.48318 66.32327 36901 ft 519 kts 90°
2026-04-30 06:24 41.48309 66.41979 36901 ft 519 kts 91°
2026-04-30 06:25 41.48289 66.51623 36902 ft 519 kts 91°
2026-04-30 06:25 41.47964 66.61250 36901 ft 518 kts 97°
2026-04-30 06:26 41.46859 66.70737 36901 ft 516 kts 102°
2026-04-30 06:26 41.45480 66.80077 36897 ft 516 kts 102°
2026-04-30 06:27 41.44082 66.89501 36878 ft 516 kts 102°
2026-04-30 06:27 41.42685 66.98928 36891 ft 516 kts 102°
2026-04-30 06:28 41.41287 67.08355 36898 ft 516 kts 102°
2026-04-30 06:28 41.39896 67.17682 36901 ft 516 kts 102°
2026-04-30 06:29 41.38483 67.27090 36903 ft 515 kts 102°
2026-04-30 06:29 41.37069 67.36464 36897 ft 515 kts 102°
2026-04-30 06:30 41.35892 67.44233 36899 ft 515 kts 102°
2026-04-30 06:30 41.34228 67.55140 36899 ft 516 kts 102°
2026-04-30 06:31 41.33024 67.62977 36906 ft 515 kts 102°
2026-04-30 06:31 41.31583 67.72339 36908 ft 515 kts 102°
2026-04-30 06:32 41.30144 67.81625 36908 ft 515 kts 102°
2026-04-30 06:32 41.28695 67.90972 36907 ft 515 kts 101°
2026-04-30 06:33 41.27662 68.00394 36914 ft 515 kts 97°
2026-04-30 06:33 41.26826 68.09888 36911 ft 516 kts 97°
2026-04-30 06:34 41.25984 68.19395 36917 ft 516 kts 97°
2026-04-30 06:34 41.25129 68.28882 36921 ft 514 kts 97°
2026-04-30 06:35 41.24270 68.38294 36926 ft 514 kts 97°
2026-04-30 06:35 41.23400 68.47736 36924 ft 514 kts 97°
2026-04-30 06:36 41.22521 68.57180 36920 ft 513 kts 97°
2026-04-30 06:36 41.21640 68.66581 36926 ft 512 kts 97°
2026-04-30 06:37 41.20757 68.75927 36927 ft 512 kts 97°
2026-04-30 06:37 41.19858 68.85343 36929 ft 512 kts 97°
2026-04-30 06:38 41.19152 68.94763 36939 ft 510 kts 93°
2026-04-30 06:38 41.18900 69.04194 36945 ft 510 kts 92°
2026-04-30 06:39 41.18679 69.13580 36949 ft 511 kts 92°
2026-04-30 06:39 41.18371 69.23014 36954 ft 510 kts 95°
2026-04-30 06:40 41.17647 69.32399 36950 ft 509 kts 96°
2026-04-30 06:40 41.16871 69.41759 36948 ft 509 kts 96°
2026-04-30 06:41 41.16098 69.51056 36931 ft 509 kts 96°
2026-04-30 06:41 41.15318 69.60425 36961 ft 507 kts 97°
2026-04-30 06:42 41.14536 69.69731 36978 ft 506 kts 97°
2026-04-30 06:42 41.13747 69.79044 36980 ft 506 kts 97°
2026-04-30 06:43 41.12952 69.88339 36996 ft 506 kts 97°
2026-04-30 06:43 41.12157 69.97551 37010 ft 505 kts 97°
2026-04-30 06:44 41.11350 70.06816 37026 ft 504 kts 97°
2026-04-30 06:44 41.10539 70.16082 37028 ft 505 kts 96°
2026-04-30 06:45 41.10161 70.25387 37041 ft 504 kts 90°
2026-04-30 06:45 41.10530 70.34620 37040 ft 504 kts 84°
2026-04-30 06:46 41.11227 70.43899 37044 ft 505 kts 84°
2026-04-30 06:46 41.11922 70.53187 37048 ft 505 kts 84°
2026-04-30 06:47 41.12593 70.62442 37059 ft 503 kts 84°
2026-04-30 06:47 41.13248 70.71709 37048 ft 502 kts 84°
2026-04-30 06:48 41.13889 70.80969 37040 ft 503 kts 85°
2026-04-30 06:48 41.14523 70.90235 37027 ft 503 kts 85°
2026-04-30 06:49 41.15148 70.99437 37026 ft 503 kts 85°
2026-04-30 06:49 41.15770 71.08705 37013 ft 504 kts 85°
2026-04-30 06:50 41.16385 71.17978 36997 ft 504 kts 85°
2026-04-30 06:50 41.16993 71.27255 36975 ft 503 kts 85°
2026-04-30 06:51 41.17591 71.36495 36959 ft 503 kts 85°
2026-04-30 06:51 41.18184 71.45766 36951 ft 503 kts 85°
2026-04-30 06:52 41.18770 71.55045 36940 ft 503 kts 85°
2026-04-30 06:52 41.19350 71.64328 36945 ft 503 kts 85°
2026-04-30 06:53 41.19921 71.73604 36947 ft 504 kts 85°
2026-04-30 06:53 41.20483 71.82909 36954 ft 504 kts 85°
2026-04-30 06:54 41.21032 71.92200 36962 ft 504 kts 85°
2026-04-30 06:54 41.21575 72.01481 36962 ft 503 kts 85°
2026-04-30 06:55 41.22113 72.10770 36964 ft 503 kts 85°
2026-04-30 06:55 41.22640 72.20011 36968 ft 503 kts 85°
2026-04-30 06:56 41.23166 72.29304 36957 ft 502 kts 85°
2026-04-30 06:56 41.23688 72.38585 36967 ft 502 kts 85°
2026-04-30 06:57 41.24206 72.47870 36980 ft 502 kts 85°
2026-04-30 06:57 41.24711 72.57091 36998 ft 502 kts 86°
2026-04-30 06:58 41.25205 72.66377 36998 ft 502 kts 86°
2026-04-30 06:58 41.25686 72.75647 37011 ft 502 kts 86°
2026-04-30 06:59 41.26161 72.84931 37031 ft 502 kts 86°
2026-04-30 06:59 41.26631 72.94218 37034 ft 502 kts 86°
2026-04-30 07:00 41.26863 72.98860 37043 ft 502 kts 86°